Weather History for Bangor, ME

Change the Weather History Date:

Tuesday, April 1, 2014

  Actual Average Record
Temperature  
Mean Temperature 37 °F 36 °F  
Max Temperature 47 °F 46 °F 64 °F (1986)
Min Temperature 26 °F 27 °F 4 °F (1928)
Degree Days  
Heating Degree Days 28 29  
Month to date heating degree days 28 29  
Since 1 July heating degree days 7084 6752  
Cooling Degree Days 0 0  
Month to date cooling degree days 0 0  
Year to date cooling degree days 0 0  
Moisture  
Dew Point 16 °F    
Average Humidity 44    
Maximum Humidity 66    
Minimum Humidity 21    
Precipitation  
Precipitation 0.00 in 0.12 in 1.61 in (1962)
Month to date precipitation 0.00 0.12  
Year to date precipitation 8.82 8.91  
Snow  
Snow 0.00 in 0.30 in 14.40 in (2011)
Month to date snowfall 0.0 0.3  
Since 1 July snowfall 78.9 62.7  
Snow Depth 6.00 in    
Sea Level Pressure  
Sea Level Pressure 30.05 in    
Wind  
Wind Speed 18 mph (North)    
Max Wind Speed 29 mph    
Max Gust Speed 35 mph    
Visibility 10 miles    
Events      
T = Trace of Precipitation, MM = Missing Value Source: NWS Daily Summary

Daily Weather History Graph

Daily Weather History Graph

Search for Another Location

Airport:

Trip Planner

Search our weather history database for the weather conditions in past years. The results will help you decide how hot, cold, wet, or windy it might be!

Date:

Astronomy

Apr. 01, 2014 Rise Set
Actual Time 6:16 AM EDT 7:02 PM EDT
Civil Twilight 5:46 AM EDT 7:32 PM EDT
Nautical Twilight 5:11 AM EDT 8:07 PM EDT
Astronomical Twilight 4:34 AM EDT 8:44 PM EDT
Moon 7:11 AM EDT (4/1) 9:27 PM EDT (4/1)
Length of Visible Light 13h 45m
Length of Day
12h 46m
Waxing Crescent, 4% of the Moon is Illuminated
Apr 1
Waxing Crescent
Apr 7
First Quarter
Apr 15
Full
Apr 22
Last Quarter
Apr 29
New

Hourly Weather History & Observations

Time (EDT) Temp. Windchill Dew Point Humidity Pressure Visibility Wind Dir Wind Speed Gust Speed Precip Events Conditions
12:53 AM 32.0 °F 19.2 °F 23.0 °F 69% 30.02 in 10.0 mi North 23.0 mph 33.4 mph N/A   Overcast
1:53 AM 32.0 °F 19.8 °F 21.9 °F 66% 30.02 in 10.0 mi North 20.7 mph 32.2 mph N/A   Overcast
2:53 AM 32.0 °F 19.8 °F 21.9 °F 66% 30.02 in 10.0 mi North 20.7 mph - N/A   Overcast
3:53 AM 32.0 °F 20.8 °F 21.9 °F 66% 30.02 in 10.0 mi North 17.3 mph - N/A   Overcast
4:53 AM 32.0 °F 20.1 °F 21.9 °F 66% 30.01 in 10.0 mi North 19.6 mph - N/A   Overcast
5:53 AM 30.9 °F 18.7 °F 19.9 °F 64% 30.04 in 10.0 mi North 19.6 mph 28.8 mph N/A   Overcast
6:53 AM 30.0 °F 18.3 °F 16.0 °F 56% 30.06 in 10.0 mi North 17.3 mph 31.1 mph N/A   Mostly Cloudy
7:53 AM 30.9 °F 18.1 °F 17.1 °F 57% 30.08 in 10.0 mi North 21.9 mph - N/A   Mostly Cloudy
8:53 AM 33.1 °F 21.2 °F 18.0 °F 54% 30.09 in 10.0 mi North 20.7 mph 27.6 mph N/A   Mostly Cloudy
9:53 AM 35.1 °F 23.8 °F 19.0 °F 52% 30.08 in 10.0 mi North 20.7 mph 29.9 mph N/A   Scattered Clouds
10:53 AM 37.0 °F 26.2 °F 18.0 °F 46% 30.06 in 10.0 mi North 21.9 mph 31.1 mph N/A   Scattered Clouds
11:53 AM 39.0 °F 28.8 °F 16.0 °F 39% 30.06 in 10.0 mi NNE 21.9 mph - N/A   Partly Cloudy
12:53 PM 41.0 °F 31.1 °F 15.1 °F 35% 30.05 in 10.0 mi North 23.0 mph 28.8 mph N/A   Partly Cloudy
1:53 PM 43.0 °F 34.5 °F 10.0 °F 26% 30.04 in 10.0 mi North 19.6 mph 27.6 mph N/A   Partly Cloudy
2:53 PM 45.0 °F 37.9 °F 10.0 °F 24% 30.02 in 10.0 mi North 16.1 mph - N/A   Partly Cloudy
3:53 PM 46.0 °F 39.6 °F 8.1 °F 21% 30.02 in 10.0 mi NNE 15.0 mph - N/A   Scattered Clouds
4:53 PM 46.9 °F - 9.0 °F 21% 30.01 in 10.0 mi NNE 12.7 mph - N/A   Partly Cloudy
5:53 PM 45.0 °F 39.3 °F 10.9 °F 25% 30.03 in 10.0 mi North 11.5 mph - N/A   Partly Cloudy
6:53 PM 42.1 °F 37.7 °F 10.9 °F 28% 30.05 in 10.0 mi NNW 6.9 mph - N/A   Partly Cloudy
7:53 PM 39.0 °F 34.8 °F 12.0 °F 33% 30.07 in 10.0 mi NNW 5.8 mph - N/A   Partly Cloudy
8:53 PM 33.1 °F 26.1 °F 15.1 °F 48% 30.09 in 10.0 mi North 8.1 mph - N/A   Partly Cloudy
9:53 PM 33.1 °F 26.9 °F 15.1 °F 48% 30.11 in 10.0 mi North 6.9 mph - N/A   Clear
10:53 PM 33.1 °F 26.9 °F 10.0 °F 38% 30.11 in 10.0 mi North 6.9 mph - N/A   Clear
11:53 PM 28.0 °F 24.2 °F 12.9 °F 53% 30.12 in 10.0 mi North 3.5 mph - N/A   Clear